カタログに戻る

FENGYUN 1C DEB

運用中SSO
NORAD 30038·DEBRIS·🇨🇳 China

打ち上げ May 10, 1999 から Taiyuan Satellite Launch Center

Loading…

次のパス (今後24時間)

TLE

最新Source: Space-Track

元期: Sep 13, 2026, 21:41 UTC

1 30038U 99025NP  26256.90408449  .00001178  00000-0  26708-3 0  9991
2 30038  98.3927 243.9031 0254799 355.7185  60.6547 14.39980775 28513

AllMySatでFENGYUN 1C DEBをリアルタイム追跡

Download on the App Store